|
NORAD ID: 20333 Int'l Code: 1989-091D
Perigee: 4,345.5 km
Apogee: 35,401.1 km
Inclination: 68.7 °
Period: 705.2 minutes
Semi major axis: 26244 km
Launch date: November 23, 1989
Source: Commonwealth of Independent States (former USSR) (CIS)
Note: This is a ROCKET BODY
Two Line Element Set (TLE):
1 20333U 89091D 13139.03650031 -.00000479 00000-0 00000+0 0 6204
2 20333 068.7203 012.7593 5916633 176.7004 354.0555 02.04197624148201
Source:
NASA's NSSDC Master Catalog entry for SL-6 R/B(2)
|